THORAD AGENA D DEB, 14467

Orbit data source: Space-Track

THORAD AGENA D DEB, 14467 is space debris in SSO originally from a launch on Wed, 08 Apr 1970 UTC launched from the Air Force Western Test Range (AFWTR). Debris objects in space refer to the collection of defunct objects orbiting the Earth. Examples of debris include non-operational satellites, rocket bodies, and fragments generated from explosions, collisions, or faulty payload assembly.

Loading next visibility...
Identifier
14467, 1970-025NT
Orbit
SSO
Country
Flag of USUS
Related business
Manufacturer
Unknown
Mission
Spacecraft
Bus & Motor
Unknown
Mass
Unknown
Launch date (UTC)
1970-04-08 (56 years ago)
Launch vehicle
Unknown
Launch site
Air Force Western Test Range (AFWTR)
Object type
Payload
Rocket body
Debris
Shape & HBR
Unknown shape, 0.1 m
Radar Cross Section
Small (<0.1 m²)

Expand to show TLE details & history
Last TLE update: 2 days ago

TLE from 2 days ago
0 THORAD AGENA D DEB
1 14467U 70025NT  25347.87758167  .00000413  00000-0  57417-3 0  9991
2 14467 100.0609 217.8457 0002037  88.9189 335.9770 13.64446359136525
Epoch: 2025-12-13T21:03Z
TLE epoch observation values (Epoch: 2025-12-13T21:03:43.056Z)
Latitude
63.15882°
Longitude
158.7038°
Altitude
1,028.964 km
Speed
7.344 km/s
True Right ascension
13h 09m 43s
True Declination
63° 01' 30"
Sunlit
Object was in daylight at epoch
Visualization orbit readout
Latitude
Unknown
Longitude
Unknown
Altitude
Unknown
Speed
Unknown
Apparent Right ascension
Unknown
Apparent Declination
Unknown
Sunlit
N/A
Visualization observer readout
Local Sidereal Time
23:41:19
Azimuth
Unknown
Elevation
Unknown
Doppler factor
Unknown
Orbital elements
Apogee altitude
1,018.384 km
Perigee altitude
1,015.372 km
Semi-major axis
7,395.015 km
Eccentricity
0.0002
Inclination
100.0609°
RAAN
217.8457°
Arg. of periapsis
88.9189°
True anomaly
335.9675°
Mean anomaly
335.977°
Eccentric anomaly
335.97225°
Mean motion
3.41299 °/min
Orbital period
105.48 mins
BSTAR
0.00057417
Loading maneuver chart data...
Computing Atmospheric mass density...

Documentation

Showing up to 5 results
|